Jackson Hole, USA 16 day weather forecast

Slopes altitude range 1925 m - 3185m

Number of lifts: 12 Pistes: 116km

In some cases the lift and piste totals shown are for the ski domain (e.g. Three Valleys) rather than individual resort (e.g. Courchevel)

Overview

The 16 day weather forecast is fully updated 4 times every day.

    • Tue 19 MAR 2019
    • Tue 19
    • -8C -6C
    • Wed 20 MAR 2019
    • Wed 20
    • -6C -4C
    • Thu 21 MAR 2019
    • Thu 21
    • -4C -2C
    • Fri 22 MAR 2019
    • Fri 22
    • -1C -1C
    • Sat 23 MAR 2019
    • Sat 23
    • -2C -1C
    • Sun 24 MAR 2019
    • Sun 24
    • -4C -1C
    • Mon 25 MAR 2019
    • Mon 25
    • -5C -4C
    • Tue 26 MAR 2019
    • Tue 26
    • -5C -4C
    • Wed 27 MAR 2019
    • Wed 27
    • -3C -1C
    • Thu 28 MAR 2019
    • Thu 28
    • 2C 3C
    • Fri 29 MAR 2019
    • Fri 29
    • -1C 2C
    • Sat 30 MAR 2019
    • Sat 30
    • -3C 4C
    • Sun 31 MAR 2019
    • Sun 31
    • -3C -1C
    • Mon 01 APR 2019
    • Mon 01
    • -9C -1C
    • Tue 02 APR 2019
    • Tue 02
    • -7C 0C
    • Wed 03 APR 2019
    • Wed 03
    • -7C 0C

Date:

Time Type 0°C level Temp Chill Snow Cloud Speed Gust Dir Press
3:00 1559m -5°C -5_2 0cm 4% 2mph 3mph 1027mB
6:00 1407m -6°C -6_3 0cm 2% 3mph 4mph 1029mB
9:00 1232m -7°C -7_3 0cm 0% 3mph 4mph 1030mB
12:00 1083m -6°C -6_3 0cm 0% 3mph 4mph 1031mB
15:00 1429m -6°C -6_3 0cm 0% 3mph 3mph 1031mB
18:00 2359m 1°C 1_3 0cm 0% 3mph 4mph 1027mB
21:00 2511m 1°C 1_2 0cm 0% 2mph 3mph 1025mB
0:00 2595m 1°C 1_1 0cm 0% 1mph 3mph 1024mB
3:00 1884m -3°C -3_3 0cm 0% 3mph 4mph 1028mB
6:00 1690m -4°C -4_4 0cm 0% 4mph 4mph 1029mB
9:00 1542m -5°C -5_4 0cm 0% 4mph 5mph 1029mB
12:00 1427m -4°C -4_4 0cm 0% 4mph 5mph 1029mB
15:00 1790m -4°C -4_4 0cm 0% 4mph 5mph 1028mB
18:00 2573m 3°C 3_5 0cm 0% 5mph 8mph 1024mB
21:00 2868m 3°C 3_5 0cm 0% 5mph 10mph 1021mB
0:00 2897m 3°C 3_4 0cm 0% 4mph 7mph 1020mB
3:00 2156m -1°C -1_5 0cm 0% 5mph 5mph 1022mB
6:00 1995m -2°C -2_5 0cm 12% 5mph 5mph 1022mB
9:00 1896m -3°C -3_5 0cm 100% 5mph 6mph 1021mB
12:00 1781m -2°C -2_5 0cm 96% 5mph 5mph 1020mB
15:00 2144m -1°C -1_5 0cm 97% 5mph 7mph 1018mB
18:00 3032m 6°C 6_4 0cm 91% 4mph 7mph 1014mB
21:00 3056m 5°C 5_5 0cm 100% 5mph 11mph 1012mB
0:00 2984m 5°C 5_4 0cm 100% 4mph 5mph 1011mB
3:00 2938m 0°C 0_4 0cm 100% 4mph 5mph 1014mB
6:00 2228m -1°C -1_4 0cm 100% 4mph 4mph 1014mB
9:00 2161m -1°C -1_3 0cm 100% 3mph 4mph 1014mB
12:00 2172m -1°C -1_2 0cm 100% 2mph 3mph 1014mB
15:00 2348m 0°C 0_2 0cm 100% 2mph 2mph 1014mB
18:00 2604m 4°C 4_4 0cm 100% 4mph 7mph 1011mB
21:00 2598m 4°C 4_5 1cm 100% 5mph 8mph 1009mB
0:00 2436m 1°C 1_3 4cm 100% 3mph 5mph 1009mB
3:00 2197m -1°C -1_3 5cm 100% 3mph 6mph 1011mB
6:00 2153m -1°C -1_4 8cm 100% 4mph 6mph 1012mB
9:00 2091m -2°C -2_3 1cm 100% 3mph 4mph 1012mB
12:00 2098m -1°C -1_3 1cm 100% 3mph 5mph 1013mB
15:00 2213m -1°C -1_3 1cm 100% 3mph 5mph 1014mB
18:00 2407m 1°C 1_4 2cm 100% 4mph 6mph 1013mB
21:00 2437m 1°C 1_4 3cm 100% 4mph 7mph 1012mB
0:00 2508m 1°C 1_3 5cm 100% 3mph 7mph 1013mB
3:00 2374m 0°C 0_3 2cm 100% 3mph 3mph 1015mB
6:00 2168m -1°C -1_5 5cm 100% 5mph 8mph 1017mB
9:00 1933m -3°C -3_4 1cm 100% 4mph 8mph 1019mB
12:00 1806m -1°C -1_4 1cm 100% 4mph 6mph 1021mB
15:00 1841m -3°C -3_4 1cm 100% 4mph 6mph 1022mB
18:00 2101m -2°C -2_4 1cm 100% 4mph 7mph 1022mB
21:00 2186m -2°C -2_5 1cm 100% 5mph 8mph 1021mB
0:00 2118m -2°C -2_5 2cm 100% 5mph 9mph 1021mB
3:00 1798m -4°C -4_3 1cm 100% 3mph 4mph 1024mB
6:00 1590m -5°C -5_2 1cm 100% 2mph 3mph 1025mB
9:00 1710m -5°C -5_2 1cm 100% 2mph 3mph 1026mB
12:00 1761m -4°C -4_3 1cm 100% 3mph 4mph 1027mB
15:00 1922m -3°C -3_2 1cm 91% 2mph 3mph 1027mB
18:00 2254m -1°C -1_3 1cm 96% 3mph 5mph 1025mB
21:00 2360m -1°C -1_3 1cm 100% 3mph 5mph 1023mB
0:00 2407m -1°C -1_3 1cm 100% 3mph 5mph 1023mB
3:00 1828m -3°C -3_0 1cm 84% 0mph 1mph 1026mB
6:00 1516m -5°C -5_2 0cm 43% 2mph 2mph 1027mB
9:00 1517m -4°C -4_4 0cm 1% 4mph 5mph 1027mB
12:00 1446m -4°C -4_4 0cm 1% 4mph 5mph 1027mB
15:00 1951m -1°C -1_4 0cm 0% 4mph 6mph 1026mB
18:00 2474m 5°C 5_3 0cm 34% 3mph 5mph 1022mB
21:00 2725m 5°C 5_3 0cm 61% 3mph 6mph 1019mB
0:00 2824m 5°C 5_3 0cm 66% 3mph 7mph 1017mB
3:00 2832m 1°C 1_4 0cm 92% 4mph 4mph 1019mB
6:00 2166m -1°C -1_5 0cm 96% 5mph 6mph 1020mB
9:00 1865m -2°C -2_5 0cm 98% 5mph 6mph 1019mB
12:00 1774m -1°C -1_5 0cm 96% 5mph 6mph 1018mB
15:00 2868m 1°C 1_5 0cm 96% 5mph 8mph 1016mB
18:00 2959m 8°C 8_4 0cm 90% 4mph 7mph 1012mB
21:00 3084m 9°C 9_4 0cm 84% 4mph 8mph 1009mB
0:00 3170m 9°C 9_3 0cm 88% 3mph 5mph 1007mB
3:00 3150m 3°C 3_5 0cm 95% 5mph 6mph 1009mB
6:00 3178m 2°C 2_7 0cm 97% 7mph 8mph 1009mB
9:00 3101m 3°C 3_8 1cm 96% 8mph 14mph 1009mB
12:00 3067m 3°C 3_7 1cm 89% 7mph 11mph 1009mB
15:00 2972m 3°C 3_6 0cm 86% 6mph 11mph 1009mB
18:00 2937m 9°C 9_4 0cm 77% 4mph 8mph 1007mB
Morning 0mm 1.0625 2501m 1°C 1_3 8cm 98% 3mph 4mph 1011mB
Afternoon 0mm 0.0625 2336m 2°C 2_6 1cm 98% 6mph 9mph 1016mB
Morning 0mm 0.375 2004m -1°C -1_2 3cm 92% 2mph 2mph 1017mB
Afternoon 0mm 0 2416m 4°C 4_4 0cm 49% 4mph 6mph 1010mB
Morning 0mm 0.5 2018m -1°C -1_3 4cm 58% 3mph 4mph 1009mB
Afternoon 0.333333mm 0.125 1983m -1°C -1_13 3cm 96% 13mph 21mph 1010mB
Morning 0mm 0.6875 1077m -7°C -7_6 6cm 62% 6mph 12mph 1016mB
Afternoon 0mm 0 1938m -1°C -1_9 0cm 3% 9mph 14mph 1013mB
Morning 0mm 0.1875 1278m -6°C -6_5 0cm 43% 5mph 5mph 1010mB
Afternoon 0mm 0 2128m 0°C 0_6 0cm 56% 6mph 9mph 1001mB
Morning 0mm 0.25 1354m -5°C -5_4 2cm 25% 4mph 6mph 1001mB
Afternoon 0mm 0.0625 2064m 0°C 0_10 1cm 48% 10mph 15mph 998mB

16 day outlook at a glance

Forecast issued: 18/03/2019 23:30:13

Chat

Your comments and questions. In a resort? Let us know what it's like!


Characters left 250

For terms and conditions see Readers Comments on the Cookie and privacy policy page.